Probability
5 7 8 7 6 6 6 5 3 2 3 3 3 4 4 4 5 5 4 2 1 0 1 1 1 0 0 0 0 0 0 0 0 0 0 1 0 0 0 0 0 0 0
6 8 9 8 7 7 6 3 1 1 2 2 2 3 4 5 4 3 3 2 1 0 0 0 0 0 0 0 0 0 0 0 0 0 1 1 1 0 0 0 0 0 0
7 9 10 9 8 7 5 2 0 0 1 1 1 1 2 4 4 2 1 1 0 0 0 0 0 0 1 1 0 0 0 0 0 0 1 1 1 0 0 0 0 0 0
7 9 10 9 7 6 4 1 0 0 0 0 0 0 2 3 3 3 2 1 0 0 0 1 1 2 2 2 1 0 0 0 0 0 1 1 1 1 1 0 0 1 1
6 8 9 7 5 4 3 1 1 1 1 1 1 1 2 3 4 4 3 2 1 1 1 1 3 3 4 4 3 2 1 1 1 1 2 3 3 3 3 1 1 2 2
9 9 8 6 4 3 3 3 3 3 3 3 3 2 3 4 5 5 5 4 3 2 2 2 3 4 4 4 5 4 3 3 3 3 5 6 6 6 5 4 3 3 3
14 14 11 7 4 4 3 3 5 6 6 6 6 5 6 6 6 6 5 4 3 3 3 2 2 3 3 4 4 4 3 4 4 5 6 6 6 7 6 5 5 3 3
18 16 12 8 6 5 4 4 7 10 10 9 9 9 9 7 7 6 5 4 4 4 3 2 1 3 3 3 4 4 3 3 3 4 4 4 4 4 4 4 4 3 2
16 13 8 6 6 6 5 6 10 13 13 11 11 12 11 9 8 7 6 6 6 6 3 1 2 3 4 4 5 5 4 3 3 4 4 3 2 1 1 1 2 2 3
14 10 6 5 5 7 8 10 12 15 16 15 13 13 12 11 10 9 8 9 10 8 5 3 3 4 4 4 6 7 6 5 5 6 5 3 1 1 0 0 1 2 3
12 10 8 7 8 9 11 13 15 17 20 20 17 14 13 13 12 11 11 13 12 9 6 4 4 4 4 5 7 8 7 7 7 6 5 4 4 4 3 3 3 3 3
12 12 12 13 14 14 15 17 17 18 20 22 20 17 16 16 16 15 15 16 13 10 8 7 6 6 6 6 7 7 7 7 7 5 5 6 7 8 7 7 6 5 5
16 16 17 20 21 22 22 21 20 20 21 22 22 21 20 20 19 18 17 16 15 14 12 10 8 8 8 8 7 7 7 7 7 7 7 8 9 10 10 9 7 6 6
22 22 24 27 30 30 30 27 25 24 24 23 23 22 21 20 18 17 16 16 16 18 17 15 11 10 11 11 10 9 9 9 9 10 11 11 11 11 12 11 8 7 7
24 26 30 34 36 36 35 32 29 27 27 25 24 22 20 17 16 15 15 15 17 18 19 17 14 13 13 13 11 10 10 12 13 14 15 15 13 12 11 9 8 7 7
23 27 33 38 39 38 37 35 32 30 30 28 26 22 19 18 17 16 15 15 17 19 19 19 18 18 17 13 9 8 11 14 16 18 18 17 15 13 10 6 4 4 6
25 29 35 39 39 37 37 38 37 36 35 32 29 25 21 19 19 19 19 20 21 22 23 23 23 22 19 12 6 5 10 16 19 20 21 21 19 16 12 8 5 4 5
33 35 37 38 37 35 35 37 39 41 40 35 31 28 25 22 21 22 25 26 26 26 27 26 24 24 20 11 4 4 11 18 20 21 22 24 22 19 15 13 11 10 9
37 38 39 39 37 35 34 35 37 41 40 34 30 29 28 26 25 28 31 31 29 29 27 25 24 25 22 12 3 4 13 18 19 19 20 22 20 16 13 13 14 13 13
34 36 38 38 37 36 35 35 36 37 35 31 28 28 29 29 30 32 33 32 30 28 26 25 25 26 24 15 5 4 12 17 17 17 17 17 14 10 7 9 12 13 12
31 33 36 37 36 35 34 34 34 33 31 29 28 27 27 28 29 30 30 29 27 25 23 24 25 25 23 17 7 4 9 14 17 17 16 15 10 5 2 5 9 9 8
32 33 35 36 36 34 33 32 31 30 28 27 27 25 24 23 24 27 27 25 23 21 19 20 21 22 21 17 9 3 4 10 16 17 16 12 7 2 0 2 4 5 5
34 34 36 37 36 35 33 33 31 29 26 25 24 23 22 21 22 26 27 25 21 19 18 18 19 20 19 16 11 5 2 5 10 14 12 7 4 1 1 1 1 2 3
35 34 35 36 36 34 32 32 31 29 26 24 24 24 22 22 25 27 26 23 21 21 21 22 21 20 18 16 13 9 6 4 6 8 7 4 2 1 2 3 4 4 5
35 33 33 34 34 32 30 29 30 28 26 25 24 22 20 21 25 25 21 17 15 17 20 22 20 18 16 14 12 11 8 6 5 6 7 6 4 4 4 6 6 6 6
35 33 32 32 32 31 29 29 29 26 24 24 23 20 17 19 23 21 15 11 9 10 13 15 14 14 13 10 8 7 6 5 5 6 8 8 7 6 6 6 7 7 6
Wind_Speed
9 9 9 8 8 8 7 6 5 5 3 2 2 2 2 2 2 2 2 2 1 2 0 1 2 1 1 1 2 1 2 2 1 1 1 2 2 2 2 1 1 2 2
11 10 10 10 9 9 8 7 6 5 5 3 2 2 1 1 1 1 2 1 1 1 1 1 1 1 1 2 1 1 1 1 1 1 2 2 3 2 2 2 2 1 1
12 12 12 11 10 9 9 7 6 5 5 4 3 3 2 2 2 2 2 1 1 1 0 1 1 1 1 1 1 1 2 1 1 1 2 2 1 1 2 3 2 2 1
13 12 13 12 11 10 9 8 7 6 5 5 4 4 3 2 2 2 2 2 2 2 2 1 1 1 1 1 2 1 2 2 2 1 2 3 3 2 1 2 2 3 2
14 14 13 12 11 10 9 9 8 7 6 6 5 5 3 2 2 2 3 2 2 2 2 2 1 1 1 1 1 0 2 2 2 2 2 2 3 4 3 1 2 2 2
14 13 13 12 11 10 10 9 9 8 7 7 6 5 4 3 2 3 3 3 3 3 3 2 2 2 1 1 1 1 2 1 2 3 2 2 2 2 2 2 2 2 1
14 14 14 13 12 11 11 9 10 9 8 8 7 6 5 5 4 3 3 3 2 2 3 2 2 1 1 1 1 1 1 2 2 3 2 2 2 2 2 3 2 2 2
13 14 14 13 12 12 11 11 10 9 9 8 7 6 6 5 4 3 3 2 2 1 2 2 2 2 2 1 1 1 1 1 2 2 2 2 2 2 2 3 3 3 3
12 12 13 12 12 12 11 11 10 9 9 8 8 7 6 4 3 4 4 3 2 2 3 3 3 2 2 1 2 0 1 1 2 1 2 2 1 2 2 3 3 4 4
10 11 11 12 11 11 10 10 10 9 8 8 7 6 6 6 5 4 3 3 2 2 2 3 3 2 2 1 2 1 1 1 1 1 1 2 2 2 2 2 3 3 4
10 10 10 10 11 10 10 10 9 9 8 7 6 6 6 6 5 4 4 4 3 4 3 3 3 2 2 2 1 1 1 2 1 2 1 2 3 3 2 2 3 3 3
8 9 10 10 10 10 10 10 9 8 8 7 7 7 6 5 5 5 5 4 4 4 4 3 3 3 2 2 2 2 2 2 2 2 2 2 2 2 3 2 3 3 3
7 8 8 9 9 9 9 9 9 8 8 8 7 7 6 6 5 5 5 5 4 4 4 3 3 2 2 2 2 2 2 3 3 2 2 2 2 2 2 3 3 3 3
7 8 8 8 8 8 8 8 8 7 7 7 7 6 5 5 5 4 4 4 4 4 4 3 3 3 3 3 3 3 3 3 3 3 3 3 3 2 2 3 3 3 3
7 8 8 8 8 8 8 7 7 7 7 7 7 6 5 5 4 4 4 4 4 4 4 3 3 3 3 2 2 3 3 3 3 3 3 2 1 2 2 3 2 2 3
7 7 7 7 7 8 8 8 7 7 7 7 7 6 6 5 5 5 4 4 4 3 4 4 4 3 2 2 1 3 3 3 3 3 3 3 3 2 2 2 3 3 4
7 7 7 7 7 7 8 8 8 8 7 7 6 6 6 5 5 5 5 5 4 4 4 4 4 3 2 2 1 3 4 4 3 3 4 4 2 4 3 4 5 4 4
6 6 6 7 7 8 8 8 8 8 8 7 6 6 6 6 6 5 5 5 4 4 4 4 4 3 3 3 3 4 6 4 4 4 4 4 4 3 3 4 4 5 5
4 4 5 6 6 7 8 8 8 8 7 7 6 6 6 6 6 5 5 5 4 4 5 4 4 4 4 5 5 5 5 4 5 5 5 5 5 2 3 5 5 5 4
4 4 5 6 7 7 8 8 7 6 6 5 5 5 5 5 5 4 4 4 4 4 5 4 5 5 5 5 5 5 5 4 4 4 5 5 4 3 4 6 6 6 5
5 5 6 5 6 7 7 7 6 6 5 5 4 4 4 5 4 4 4 4 4 4 4 4 5 5 4 5 6 6 5 5 5 4 4 3 5 6 7 7 6 5 5
6 6 5 5 5 6 6 6 5 4 4 4 4 4 3 3 3 3 4 4 4 5 5 5 5 4 4 5 6 8 8 7 6 5 4 2 5 7 8 7 4 4 5
5 5 5 5 5 5 5 5 4 4 4 4 4 4 4 3 3 4 4 4 5 5 4 4 4 3 3 4 7 8 9 9 7 5 3 3 5 6 7 7 7 7 6
4 4 5 5 5 4 4 4 4 4 4 4 3 3 4 4 4 3 4 4 4 4 4 4 4 3 3 3 3 4 5 6 7 5 4 6 7 7 6 5 6 6 5
3 3 3 4 4 3 3 3 4 4 4 4 3 4 4 4 3 4 3 4 3 2 4 4 4 4 4 1 1 3 3 3 3 3 4 4 4 4 4 4 4 5 5
3 3 3 3 3 3 3 3 3 4 4 4 4 3 3 3 3 4 4 2 3 2 3 4 5 4 2 1 2 4 4 4 4 5 5 5 5 5 4 4 4 4 4
Wind_Direction
184 182 183 183 180 179 180 184 190 178 184 177 182 166 154 154 129 127 122 140 123 121 194 128 136 195 148 158 169 177 183 202 183 211 186 171 170 145 155 159 159 149 159
186 184 187 186 185 182 184 185 190 188 193 176 175 174 159 158 140 112 112 136 133 143 152 125 183 169 161 178 180 196 257 204 180 280 261 207 167 176 159 160 166 158 170
192 187 190 192 188 184 187 186 186 189 197 187 182 170 172 186 156 154 154 155 157 158 99 168 210 169 216 161 195 211 238 267 236 269 292 300 318 154 159 176 168 179 204
197 191 191 192 190 187 185 186 186 188 190 193 196 189 187 183 174 180 149 155 157 159 155 161 169 204 200 150 219 178 249 255 256 216 251 284 323 290 196 186 175 184 196
195 193 192 190 190 189 185 184 184 186 188 195 193 202 199 196 172 173 149 180 156 169 169 167 166 182 202 159 266 230 271 263 274 267 245 243 235 249 262 242 205 196 193
193 192 189 186 189 188 188 185 183 187 190 196 197 203 199 204 190 186 172 187 170 175 171 178 179 191 176 175 230 236 215 280 281 279 271 264 263 259 257 255 241 239 205
193 190 189 187 189 190 189 186 184 187 191 194 196 196 196 198 201 211 193 215 184 173 163 177 177 184 182 212 234 219 253 253 257 259 267 277 278 290 281 271 264 268 245
189 188 187 188 189 191 190 189 187 188 188 189 191 194 199 205 197 207 224 203 211 181 154 172 180 193 217 225 207 241 228 237 253 257 275 273 269 273 269 275 272 265 249
184 183 183 185 185 188 188 189 186 187 188 188 186 189 196 205 198 192 209 203 199 187 172 182 185 194 207 234 242 246 270 267 261 250 226 266 282 270 272 268 266 273 275
178 178 181 182 182 183 182 184 183 184 186 187 191 184 188 192 195 200 190 190 189 185 184 186 189 194 193 204 243 220 183 256 266 289 310 291 288 287 269 277 276 269 276
173 174 177 178 177 178 177 179 180 181 182 181 183 187 187 185 184 188 190 190 190 182 188 194 196 196 195 194 207 252 226 251 271 270 260 273 298 296 289 279 273 267 260
167 169 169 171 175 178 177 177 180 181 179 176 179 185 185 186 190 186 189 191 189 191 187 195 200 207 200 202 213 243 242 250 260 267 277 278 274 281 288 288 279 270 264
163 164 164 168 172 172 174 175 180 179 175 175 179 180 186 185 190 192 189 189 190 192 192 193 206 218 218 216 222 236 247 251 253 255 254 265 274 275 291 288 277 262 245
165 167 164 165 165 165 166 168 172 173 173 175 178 177 182 182 182 183 184 187 191 192 196 199 205 213 222 224 233 241 248 254 254 253 256 261 265 266 272 266 270 273 261
169 171 169 166 166 164 162 161 162 165 169 174 177 175 177 177 179 181 184 186 191 195 193 199 199 205 210 214 241 249 243 249 254 252 254 260 288 324 301 297 293 274 262
178 172 169 165 166 166 166 163 164 163 166 174 174 172 176 179 184 186 185 185 188 194 196 200 204 209 196 92 10 282 254 248 248 252 249 233 210 202 223 291 318 310 276
182 176 173 170 169 170 169 168 167 162 162 167 172 171 177 184 190 192 186 188 192 194 198 204 206 201 154 131 181 267 264 251 253 254 252 251 218 215 218 208 220 239 257
184 178 174 170 170 169 167 165 163 163 163 166 170 175 185 189 191 193 192 192 197 201 203 205 203 201 172 170 206 243 244 251 249 248 249 252 252 240 246 239 234 236 226
182 180 176 168 164 162 159 159 162 164 167 170 175 179 187 189 192 194 194 192 195 200 204 203 206 208 194 190 208 242 244 238 244 245 244 246 244 218 246 244 241 245 242
161 163 161 154 152 154 156 157 157 161 166 168 176 181 189 190 192 192 194 195 199 208 213 206 214 217 218 193 202 232 251 246 246 237 231 226 239 210 218 240 242 244 248
151 151 149 147 146 151 155 156 159 168 167 161 160 172 183 189 190 191 197 202 208 210 222 220 222 224 227 197 193 214 249 256 253 250 244 221 184 209 221 241 245 248 258
146 146 142 139 141 152 159 162 164 163 159 157 161 165 174 193 181 192 204 211 215 212 214 221 232 224 216 214 200 205 230 265 261 259 259 241 191 216 226 235 240 241 247
143 146 144 143 147 161 168 166 154 161 162 165 170 170 179 198 196 200 207 212 217 231 227 226 234 237 226 196 193 205 221 238 254 264 274 256 218 222 225 222 224 226 235
149 152 151 150 153 157 160 157 155 163 169 176 180 182 192 199 197 218 221 227 227 234 238 241 248 254 242 242 216 217 219 224 238 254 239 218 219 231 242 220 215 232 240
148 152 152 151 154 152 152 159 162 168 177 184 191 204 209 205 204 214 234 243 245 265 263 266 263 267 266 293 316 265 249 255 262 266 253 245 232 228 233 233 232 235 231
136 141 151 156 156 160 163 167 170 177 188 196 204 216 218 214 224 220 220 216 243 209 230 260 274 274 272 222 231 253 258 243 235 245 245 246 246 245 243 245 243 240 244